RH
31 45 51 55 64 61 55 34 20 20 34 43 44 64 80 77 77 88 73 67 73 69 72 73 74 72 72 74 78 80 82 83 84 84 84 86 89 90 91 92 91 91 84 89 90 88 92 88 86
24 40 54 79 76 68 50 33 21 22 40 46 52 58 71 79 66 67 78 72 66 65 71 75 74 75 80 84 85 87 88 86 87 89 88 90 90 90 91 89 93 89 86 89 86 81 79 82 88
31 66 66 80 80 69 50 28 40 35 41 41 56 62 66 75 59 56 70 72 70 74 72 75 76 80 83 84 87 84 88 89 86 85 83 79 75 75 82 80 79 80 79 80 84 86 89 91 91
66 63 61 76 75 54 59 43 41 38 34 39 61 80 67 65 57 69 71 75 81 86 80 78 81 87 87 88 90 91 87 84 81 76 65 54 47 43 42 44 52 60 65 68 69 70 70 73 82
64 75 78 78 64 50 65 42 38 40 40 40 56 78 80 72 62 62 62 62 68 83 84 86 88 89 90 88 82 81 80 71 58 45 38 32 27 25 25 25 26 27 29 32 35 38 43 46 49
72 70 82 83 62 45 52 38 41 38 40 51 70 79 87 73 64 59 61 67 64 73 77 88 88 86 83 81 78 61 44 40 34 25 22 22 22 34 39 39 37 37 35 29 28 29 30 30 30
74 79 75 66 57 49 55 27 40 43 46 51 61 89 86 80 74 70 63 64 70 77 75 84 84 82 80 70 48 42 36 25 23 25 30 34 39 42 46 45 43 44 44 43 41 40 43 43 44
69 70 58 60 58 52 50 31 26 42 50 46 59 95 85 87 77 68 67 77 80 80 78 78 67 54 49 48 38 32 26 33 36 38 37 42 43 44 47 46 47 51 50 50 54 52 52 52 53
51 78 73 58 51 48 41 40 33 36 51 68 84 80 73 83 79 80 83 78 74 74 72 63 59 52 47 42 33 34 35 38 40 42 42 44 44 47 45 46 49 48 48 51 54 62 55 54 53
75 88 71 43 43 55 43 34 37 49 53 86 95 93 93 90 87 86 83 77 70 68 63 56 52 49 42 33 34 36 35 39 43 44 40 39 43 44 42 42 45 45 50 53 57 59 59 58 57
64 78 56 43 36 45 50 36 30 54 51 66 96 94 89 89 87 85 79 74 69 65 60 60 56 49 37 33 35 36 36 37 43 42 36 30 37 33 36 41 45 50 56 59 63 63 65 64 61
67 57 52 48 34 41 44 44 31 33 34 42 87 88 87 87 84 83 81 75 69 63 57 57 53 42 32 32 35 37 39 41 40 33 26 30 27 31 33 37 47 56 62 58 62 68 69 68 67
64 53 46 47 39 41 50 40 34 35 36 70 82 90 86 87 84 82 76 75 67 60 56 54 49 37 29 35 36 39 41 41 34 29 29 30 32 33 35 44 48 58 56 55 68 71 70 68 68
54 49 40 32 36 35 46 40 31 35 43 80 84 95 88 90 82 82 79 73 63 61 59 56 46 36 31 31 36 40 40 38 33 29 31 32 35 34 34 41 48 53 52 56 71 73 70 66 70
41 50 39 33 34 42 33 35 37 43 46 69 83 88 90 88 80 80 76 69 66 64 61 57 49 39 32 32 35 37 39 38 33 28 32 36 35 35 37 42 47 51 48 60 69 63 53 63 70
50 44 51 36 33 34 35 46 38 52 55 63 68 85 87 87 80 74 70 65 62 62 60 56 51 42 37 37 36 40 41 36 33 32 37 39 36 38 38 42 48 50 49 58 66 63 62 65 76
46 61 50 40 32 33 40 46 35 52 59 66 69 78 80 80 69 63 60 57 55 54 52 53 53 47 40 41 39 42 40 29 36 37 41 42 39 42 43 44 49 52 52 53 60 63 65 65 75
52 53 46 49 35 35 41 40 36 40 59 71 81 83 82 78 68 60 58 55 52 52 52 52 51 47 44 45 45 44 40 32 31 34 40 43 41 44 46 49 51 54 54 54 56 62 66 64 78
29 35 45 40 30 40 42 39 34 29 40 71 80 82 78 74 60 52 52 51 45 54 53 50 46 46 49 50 50 50 46 38 39 38 43 44 38 43 48 52 53 55 58 58 58 60 67 65 74
33 38 43 34 28 36 44 39 33 27 26 38 63 75 72 47 37 29 25 25 26 30 40 40 43 45 49 49 47 50 43 42 43 41 43 41 45 50 54 56 57 58 61 61 61 60 68 71 71
37 43 44 42 28 26 34 37 32 27 23 24 25 29 38 37 39 40 34 30 28 27 27 34 38 47 48 49 52 51 45 41 40 41 45 47 48 51 56 58 59 59 62 64 64 63 64 76 75
37 37 37 38 38 58 31 62 34 28 27 24 25 30 40 47 46 43 38 34 33 33 33 32 39 47 49 50 51 50 54 55 49 48 50 53 57 58 58 59 60 60 63 66 67 67 64 71 81
34 43 32 31 38 43 29 73 42 34 32 32 29 29 42 45 50 52 49 46 46 45 42 41 43 50 52 53 54 55 58 58 55 54 58 58 52 50 53 56 58 59 62 65 67 70 69 66 78
36 34 32 48 54 67 35 70 60 36 29 32 31 44 47 48 50 53 50 50 52 53 53 52 52 52 54 55 56 57 56 55 59 57 49 48 47 45 47 52 58 63 66 67 68 69 72 68 68
41 56 79 57 64 62 43 51 60 33 36 33 44 46 48 48 52 57 57 63 61 59 58 57 56 56 56 56 56 58 60 61 56 48 47 47 47 46 48 53 55 58 62 68 70 73 73 73 70
44 48 80 52 76 71 39 39 55 36 42 48 42 46 46 48 50 54 55 56 58 59 59 58 57 56 57 57 58 57 47 45 44 44 45 46 46 47 50 53 54 55 58 62 68 71 71 73 73
32 53 39 69 64 70 64 41 40 37 38 42 46 48 49 49 51 54 55 53 53 56 56 56 56 56 54 46 41 41 42 41 42 45 46 46 46 47 48 49 51 52 55 60 64 68 70 72 74
40 36 61 79 52 49 60 30 66 71 44 44 46 48 49 50 53 59 56 47 50 51 50 50 45 42 40 40 41 42 42 41 42 41 40 42 45 45 46 45 47 48 51 56 60 63 66 70 72
55 47 40 47 58 61 47 65 56 45 48 45 48 49 50 55 57 56 48 38 36 38 38 38 40 41 42 43 40 38 38 40 41 42 44 45 45 46 47 48 49 49 50 50 54 56 58 60 63
44 42 40 65 46 52 53 49 32 42 45 39 40 42 47 50 53 53 41 37 37 38 41 41 44 44 43 41 42 41 40 41 43 45 45 47 49 50 52 53 53 53 53 53 54 55 56 57 59
Wind_Speed
12 11 11 3 3 4 3 5 4 2 5 1 3 16 12 6 4 6 17 22 23 22 18 15 13 12 12 11 10 9 9 8 8 7 7 8 8 7 7 7 8 8 8 6 5 7 8 8 8
7 5 2 2 4 3 4 5 2 1 7 8 10 7 9 7 4 14 15 23 19 23 19 16 13 12 11 10 9 8 7 7 7 6 7 8 8 8 7 7 7 7 7 7 7 8 9 10 11
10 3 3 4 4 5 5 4 7 3 7 6 5 6 6 5 2 7 27 25 22 21 17 15 13 11 10 9 7 6 6 5 5 5 6 6 6 6 7 7 8 8 8 8 9 9 10 11 11
8 2 1 3 6 8 5 4 4 6 5 8 10 8 5 4 3 16 33 29 26 21 18 14 12 11 10 8 7 6 4 4 5 6 6 7 7 8 8 8 9 9 9 9 9 10 11 12 12
3 2 3 4 7 5 6 4 9 5 6 7 5 5 4 5 25 26 23 21 22 20 17 14 12 11 9 7 5 3 2 4 4 5 6 7 8 9 10 10 10 11 11 12 12 12 13 14 14
2 3 4 5 5 7 4 8 8 5 5 7 7 6 3 8 24 22 21 20 17 17 15 14 12 9 7 5 4 3 3 4 5 6 7 8 8 9 11 11 12 12 15 15 14 15 15 16 17
2 3 5 7 6 6 7 7 6 7 7 5 11 5 5 7 23 24 21 19 18 18 14 12 10 8 5 4 3 3 4 5 7 8 10 9 9 9 9 15 14 16 15 14 14 14 15 15 16
2 1 5 9 8 3 7 5 3 13 4 6 6 7 8 8 27 26 24 24 21 17 15 11 11 7 6 4 4 5 6 7 8 8 9 9 9 10 12 13 14 14 16 16 16 16 16 16 15
1 1 5 6 13 5 0 4 3 3 8 5 5 2 17 28 30 30 27 25 22 20 15 12 11 8 5 3 4 4 6 5 6 7 8 7 8 8 10 12 12 13 15 15 15 16 16 16 14
5 4 4 4 6 6 4 3 6 5 5 5 7 11 25 28 26 24 20 19 20 18 16 14 13 9 5 1 1 3 4 3 4 6 7 6 6 7 8 9 11 12 13 13 15 14 14 14 17
5 5 9 8 9 9 10 1 2 9 2 5 12 15 14 21 20 20 21 21 19 17 15 13 12 9 6 3 2 1 3 2 4 7 8 7 5 8 9 10 12 14 14 16 15 16 15 17 17
3 6 7 6 7 5 13 5 5 5 0 6 15 17 15 14 17 19 20 19 19 17 15 12 10 9 7 6 3 1 2 2 5 6 7 7 10 10 11 12 13 14 15 18 17 17 17 16 16
8 6 11 12 10 9 10 7 5 5 4 16 16 14 17 12 16 19 23 20 21 17 15 12 10 9 7 6 4 1 2 4 5 4 6 8 9 11 12 12 13 14 17 18 17 17 19 19 15
7 7 8 6 9 4 13 5 6 1 5 15 15 12 14 12 18 18 19 21 22 18 16 14 11 9 7 6 4 3 2 4 4 4 6 7 8 11 12 12 13 14 17 16 15 17 20 20 15
7 6 8 4 4 1 13 7 8 8 8 13 12 11 12 10 17 17 22 24 22 19 16 14 12 9 7 6 4 2 1 2 4 4 4 6 8 11 12 13 13 14 17 15 16 19 21 20 16
5 6 4 4 3 3 5 3 5 9 10 9 10 12 11 9 16 18 22 23 19 18 17 15 13 11 8 6 4 4 2 2 4 4 4 5 8 10 12 13 12 14 15 15 16 21 24 22 19
6 5 4 1 2 2 5 5 5 8 10 9 8 9 9 8 10 21 21 17 18 19 17 15 13 11 10 8 6 5 4 4 4 4 4 6 9 10 12 13 12 14 15 14 15 17 21 24 22
5 6 4 6 4 3 4 1 7 8 10 11 9 8 7 7 7 17 17 16 15 16 16 14 12 11 11 8 7 6 5 4 5 6 6 7 10 11 13 13 13 13 14 15 15 16 19 22 19
3 4 3 2 1 3 4 7 7 7 8 8 8 8 7 8 8 15 16 14 11 15 17 16 15 12 12 11 8 7 6 6 6 6 7 10 12 12 13 15 14 14 14 14 13 15 17 21 20
5 6 2 4 2 3 5 3 4 3 3 5 8 9 10 6 7 11 13 11 10 12 15 16 16 14 15 11 8 5 4 4 7 9 10 12 11 12 14 17 17 14 14 14 13 13 13 14 16
6 6 5 8 4 2 7 3 4 2 1 7 6 4 4 9 9 6 7 7 10 13 13 14 13 16 15 12 9 8 6 6 7 6 8 8 12 14 16 16 16 15 15 14 13 12 11 9 12
2 2 4 12 5 5 3 4 4 5 4 2 5 6 7 8 5 4 6 5 5 8 8 11 10 14 14 11 9 6 5 6 6 9 10 12 13 14 15 15 16 16 15 14 13 12 11 10 9
3 2 4 4 5 5 3 4 5 6 5 7 7 6 7 8 8 7 6 5 4 6 7 8 10 11 10 8 7 6 6 6 7 10 12 12 13 12 13 14 16 16 15 16 14 14 14 11 9
3 4 8 5 4 2 2 4 4 5 5 4 3 7 8 7 6 6 7 6 5 5 6 7 8 8 7 6 5 5 5 6 9 10 11 10 11 12 12 13 15 16 17 17 16 14 16 16 14
8 7 3 3 3 4 3 4 6 3 2 8 10 9 8 7 7 6 7 8 6 6 7 8 8 7 6 6 5 5 6 7 8 8 10 12 15 16 15 15 16 17 18 18 17 17 17 18 19
5 4 4 5 4 3 2 3 4 3 4 8 5 8 7 7 5 6 8 9 9 8 8 8 8 7 8 6 5 5 5 5 7 9 11 14 15 16 15 15 16 18 19 18 18 18 18 19 19
2 2 2 5 3 4 2 2 3 3 3 3 6 6 6 5 5 6 9 11 10 9 8 8 9 8 7 6 5 4 4 6 9 11 13 15 15 16 16 16 18 19 19 18 18 19 21 20 21
2 3 2 3 3 1 5 1 3 4 4 3 2 4 5 5 6 6 8 10 9 9 8 8 8 8 7 5 3 4 6 8 10 14 15 14 15 15 17 18 17 18 17 17 17 19 20 21 23
4 3 3 4 3 3 2 4 3 3 4 8 8 7 6 6 5 5 7 7 7 6 7 7 7 6 5 3 4 6 9 11 13 13 13 14 16 17 17 17 17 18 18 17 17 18 19 20 22
1 1 3 4 2 2 3 4 5 5 6 3 2 3 4 6 7 6 10 10 8 7 7 7 6 5 4 4 6 8 11 12 12 12 14 15 17 16 17 17 19 19 18 17 17 18 18 19 21
Wind_Direction
253 252 314 352 82 83 241 255 200 139 67 357 97 93 104 61 47 131 130 143 139 144 141 135 130 124 116 108 101 93 87 81 69 55 44 38 28 20 22 26 21 16 15 34 352 338 333 330 330
224 241 270 82 117 145 242 223 191 166 136 106 80 111 55 63 35 114 109 137 139 142 141 136 131 124 115 107 99 90 78 66 59 51 46 46 40 30 23 12 10 8 3 354 343 331 320 315 311
173 145 105 143 176 188 209 161 158 149 105 97 96 49 97 137 5 106 143 140 132 135 134 133 130 124 116 106 102 92 85 80 57 39 28 18 13 4 358 353 350 347 345 340 333 325 321 320 313
162 41 296 159 206 243 214 7 199 119 65 76 110 71 69 15 103 117 135 138 137 140 132 130 129 124 121 120 107 107 84 50 33 24 20 15 11 3 358 355 350 346 341 335 330 326 323 322 319
225 94 195 202 215 235 231 237 280 118 119 112 103 116 75 34 123 130 137 140 133 133 129 131 131 130 129 129 116 96 45 29 27 18 10 6 4 358 351 346 340 335 330 325 320 315 313 309 308
159 153 174 189 211 238 247 215 180 136 129 108 80 97 126 120 128 142 144 135 143 136 137 137 137 135 135 125 107 80 44 25 19 14 11 4 3 7 1 352 344 343 334 324 320 316 313 310 307
189 131 192 155 194 242 208 216 185 137 126 124 140 90 156 116 132 142 143 147 136 132 136 136 133 129 126 116 93 64 43 25 20 22 22 24 17 2 359 348 347 350 354 349 341 337 337 334 325
189 51 171 181 197 235 204 214 161 130 162 102 150 153 168 157 134 143 143 133 128 127 128 127 121 111 99 93 65 58 49 44 33 25 22 20 8 355 352 355 358 352 355 360 357 350 349 347 344
195 337 213 195 195 183 46 156 357 327 94 64 19 99 144 140 142 133 128 128 131 132 137 137 130 128 120 60 59 49 47 40 25 4 13 10 7 4 352 358 353 350 354 352 353 342 344 344 340
180 171 242 238 221 172 265 93 135 87 84 54 74 82 124 139 138 129 137 138 141 147 154 161 161 159 158 146 90 40 17 38 13 347 359 4 359 347 349 347 344 350 347 344 344 336 337 336 336
198 198 245 277 246 184 196 154 107 126 92 173 162 150 141 136 140 142 150 156 159 158 158 168 165 168 164 129 116 60 2 354 337 342 353 357 349 358 352 350 354 353 354 349 344 343 344 340 336
252 227 239 268 295 218 185 173 154 93 69 195 158 161 152 149 153 152 157 165 166 168 168 174 169 170 170 155 162 259 321 337 344 355 359 10 10 6 4 3 2 2 354 346 346 348 342 339 339
244 184 256 275 277 229 158 153 114 120 47 127 135 157 168 158 158 165 173 171 170 173 174 179 177 175 168 167 172 192 295 333 344 1 14 12 8 7 6 7 6 358 348 350 353 351 344 338 336
185 222 270 274 285 216 142 179 98 288 134 125 141 165 176 174 166 165 178 168 173 177 184 187 190 186 177 177 185 218 288 309 3 0 11 4 6 8 5 4 1 351 348 354 356 348 341 338 335
223 191 253 253 274 117 113 113 156 142 145 152 154 170 176 173 172 180 174 174 181 190 191 192 194 193 190 190 194 233 269 299 339 343 345 2 3 3 2 359 356 349 351 357 352 345 346 346 340
208 126 140 268 281 336 83 178 146 146 146 153 166 173 174 177 188 185 178 179 184 189 196 195 201 201 198 201 204 223 248 258 297 320 337 355 350 354 356 352 351 348 352 355 347 348 350 351 343
244 169 131 102 349 34 70 154 205 155 149 166 171 166 164 165 162 161 163 172 183 193 192 193 204 206 205 206 216 230 259 258 260 296 319 326 334 340 340 343 344 342 345 350 348 346 347 348 342
186 140 145 153 215 109 104 197 170 167 157 166 165 161 157 155 155 158 170 175 180 185 196 209 213 212 204 206 221 236 258 272 260 277 286 298 313 320 325 332 335 336 339 345 347 343 343 349 345
154 123 128 107 75 114 152 149 183 176 143 155 164 165 171 176 177 157 167 176 174 194 197 204 203 204 202 202 214 236 256 273 273 292 280 292 305 312 315 325 327 329 332 336 340 338 340 353 357
66 107 121 50 79 87 141 196 194 169 139 153 180 179 179 142 138 146 151 167 184 197 202 198 207 203 203 211 220 221 238 261 279 287 287 294 307 314 319 323 321 320 322 327 333 336 334 345 4
41 139 183 149 150 23 126 357 165 219 103 112 89 113 116 162 146 146 156 193 213 213 212 205 207 199 196 204 203 232 259 278 290 296 300 304 313 314 313 313 315 316 311 311 319 322 321 331 347
93 320 197 136 98 166 97 232 253 198 164 218 153 124 117 122 133 148 157 172 200 203 200 197 191 187 192 209 228 239 264 282 299 312 315 314 314 314 313 312 314 315 306 299 306 304 301 306 307
194 336 90 130 99 93 328 79 256 137 211 222 236 177 162 159 157 154 136 141 157 174 182 177 173 171 185 214 233 241 269 287 300 303 307 311 313 315 316 308 307 309 312 302 298 294 292 285 274
218 54 43 46 72 44 252 134 277 183 199 193 165 165 160 142 148 137 143 156 167 169 167 152 162 183 202 220 236 259 274 288 297 304 309 316 320 322 318 310 301 296 299 304 302 291 289 285 277
58 61 33 27 14 205 268 55 237 209 22 187 167 176 168 159 152 158 161 169 160 157 154 159 168 178 196 220 231 247 266 277 288 301 309 314 318 321 320 313 307 304 300 295 293 289 284 284 281
39 123 159 168 173 217 360 216 259 91 61 65 115 154 158 168 171 184 187 175 173 168 169 167 173 176 186 210 225 242 257 275 292 306 311 310 312 310 312 308 305 304 302 298 292 285 281 279 278
350 49 192 109 4 69 234 274 1 12 65 99 132 144 166 161 157 140 150 161 166 168 174 178 176 177 187 193 204 221 261 289 301 306 308 311 311 312 312 311 307 305 303 301 296 290 287 284 280
239 179 71 3 106 81 315 320 238 308 266 269 214 197 217 201 176 166 156 155 160 166 174 174 176 181 182 196 238 278 292 299 304 306 309 310 311 310 309 309 306 305 305 302 299 294 291 286 282
347 21 37 111 99 138 134 283 234 223 228 202 212 211 204 183 169 171 164 167 172 179 180 179 183 187 197 237 277 298 308 310 310 309 311 314 313 313 313 312 310 308 306 303 299 296 294 291 289
228 21 84 100 341 39 117 284 358 29 21 92 238 194 159 176 186 179 175 174 184 197 195 198 203 215 237 279 299 310 313 312 311 314 317 319 316 317 317 317 313 312 310 309 305 300 296 293 292